This is the latest recevied weather packets stored in our database for station/object KG5TTF. If no packets are shown the sender has not sent any weather packets the latest 10 day(s).
| Time | Temp. | Humidity | Pressure | Rain* | Wind** | Luminosity | Snow |
|---|---|---|---|---|---|---|---|
| 1777903925 | 13.89° C | 30% | 1015.2 hPa | 0 mm | - | 132 W/m² | - |
| 1777903622 | 13.89° C | 31% | 1015.1 hPa | 0 mm | - | 124 W/m² | - |
| 1777903318 | 13.33° C | 32% | 1015.2 hPa | 0 mm | - | 110 W/m² | - |
| 1777903015 | 13.33° C | 32% | 1015.3 hPa | 0 mm | - | 91 W/m² | - |
| 1777902711 | 12.78° C | 32% | 1015.1 hPa | 0 mm | - | 82 W/m² | - |
| 1777902409 | 12.78° C | 31% | 1015.1 hPa | 0 mm | - | 80 W/m² | - |
| 1777902105 | 12.78° C | 32% | 1015.2 hPa | 0 mm | - | 91 W/m² | - |
| 1777901804 | 12.78° C | 33% | 1015.3 hPa | 0 mm | - | 99 W/m² | - |
| 1777901501 | 12.22° C | 33% | 1015.2 hPa | 0 mm | - | 92 W/m² | - |
| 1777901198 | 11.67° C | 35% | 1015.2 hPa | 0 mm | - | 81 W/m² | - |
| 1777900896 | 11.11° C | 35% | 1015.2 hPa | 0 mm | - | 72 W/m² | - |
| 1777900593 | 10.56° C | 34% | 1015.1 hPa | 0 mm | - | 62 W/m² | - |
| 1777900290 | 10.56° C | 35% | 1015.1 hPa | 0 mm | - | 53 W/m² | - |
| 1777899986 | 10.56° C | 36% | 1015.2 hPa | 0 mm | - | 48 W/m² | - |
| 1777899683 | 10.56° C | 36% | 1015.1 hPa | 0 mm | - | 51 W/m² | - |
| 1777899381 | 10° C | 36% | 1015.1 hPa | 0 mm | - | 51 W/m² | - |
| 1777899078 | 10° C | 37% | 1014.8 hPa | 0 mm | - | 46 W/m² | - |
| 1777898775 | 10° C | 37% | 1015.2 hPa | 0 mm | - | 40 W/m² | - |
| 1777898473 | 10° C | 36% | 1014.8 hPa | 0 mm | - | 32 W/m² | - |
| 1777898170 | 10° C | 37% | 1015.1 hPa | 0 mm | - | 28 W/m² | - |
| 1777897867 | 10° C | 37% | 1015.1 hPa | 0 mm | - | 27 W/m² | - |
| 1777897563 | 9.44° C | 37% | 1014.8 hPa | 0 mm | - | 21 W/m² | - |
| 1777897259 | 9.44° C | 37% | 1015.1 hPa | 0 mm | - | 15 W/m² | - |
| 1777896955 | 9.44° C | 38% | 1014.9 hPa | 0 mm | - | 12 W/m² | - |
| 1777896652 | 9.44° C | 38% | 1014.8 hPa | 0 mm | - | 8 W/m² | - |
* Rain latest hour (hover to see other rain measurements)
** Current wind speed in m/s (hover to see current wind gust speed)